Location: Acton
(51.4942°N, 0.2232°W)
Time: 09:52:08
(UTC+00:00)

Okean 1-7 Rocket - Pass Details

Date: 17 January 2021
Orbit: 615 x 650 km, 82.5° (Epoch: 26 February)

Event Time Altitude Azimuth Distance (km) Brightness Sun altitude
Exits shadow 07:09:07 - 331° (NNW) 2,636 6.3 -7.5°
Reaches altitude 10° 07:11:04 10° 316° (NW) 2,060 5.7 -7.2°
Maximum altitude 07:13:54 16° 277° (W) 1,661 5.2 -6.8°
Drops below altitude 10° 07:16:43 10° 239° (WSW) 2,041 5.9 -6.4°
Sets 07:19:39 0° 218° (SW) 2,938 6.9 -6.0°
